#timestamp,LO_Frequency,Hit,StdDev 
1650049215.5,286047009.3,N
1650049235.3,286047006.3,N
1650049255.2,286047005.9,N
1650049275.0,286047003.1,N
1650049275.9,286047003.1,N
1650049295.7,286047004.3,N
1650049315.6,286047005.6,N
1650049335.4,286047003.6,N
1650049355.3,286047003.0,N
1650049375.1,286047003.9,N
1650049376.0,286047003.9,N
1650049395.8,286047002.0,N
1650049415.7,286047000.8,N
1650049435.5,286046996.5,N
1650049455.3,286046996.4,N
1650049475.2,286046993.8,N
1650049495.0,286046996.6,N
1650049495.9,286046996.6,N
1650049515.8,286046998.1,N
1650049535.6,286046998.7,N
1650049555.4,286046998.3,N
1650049575.3,286046997.5,N
1650049595.1,286046999.6,N
1650049615.8,286047002.5,N
1650049635.7,286047000.4,N
1650049655.5,286047002.6,N
1650049675.4,286047002.3,N
1650049695.2,286047003.8,N
1650049715.0,286047005.8,N
1650049715.9,286047005.8,N
1650049735.8,286047003.1,N
1650049755.6,286046999.1,N
1650049775.4,286046995.5,N
1650049795.3,286046993.5,N
1650049815.1,286046996.4,N
1650049835.9,286046999.0,N
1650049855.7,286047000.7,N
1650049875.5,286047000.0,N
1650049895.4,286047001.3,N
1650049915.2,286047002.7,N
1650049935.0,286046998.2,N
1650049935.9,286046998.2,N
1650049955.8,286046995.3,N
1650049975.6,286046993.8,N
1650049995.5,286046994.1,N
1650050015.3,286046993.9,N
1650050035.1,286046994.4,N
1650050055.9,286046991.8,N
1650050075.7,286046994.3,N
1650050095.5,286046996.6,N
1650050115.4,286046994.9,N
1650050135.2,286046995.6,N
1650050155.1,286046997.9,N
1650050156.0,286046997.9,N
1650050175.8,286046995.0,N
1650050195.6,286046994.7,N
1650050215.5,286046993.8,N
1650050235.3,286046999.2,N
1650050255.1,286046997.8,N
1650050275.9,286046996.5,N
1650050295.7,286046995.0,N
1650050315.6,286046992.3,N
1650050335.4,286046994.3,N
1650050355.2,286046992.2,N
1650050375.1,286046990.4,Y
1650050376.0,286046990.4,P
1650050395.8,286046997.8,N
1650050415.7,286046994.9,N
1650050435.5,286046996.6,N
1650050455.3,286047000.5,N
1650050475.2,286046997.2,N
1650050495.0,286046995.2,N
1650050495.9,286046995.2,N
1650050515.7,286046997.8,N
1650050535.6,286046995.1,N
1650050555.4,286046997.8,N
1650050575.3,286046995.5,N
1650050595.1,286046993.4,N
1650050596.0,286046993.4,N
1650050615.8,286046998.7,N
1650050635.7,286046996.8,N
1650050655.5,286046998.8,N
1650050675.3,286046995.3,N
1650050695.2,286046995.6,N
1650050715.0,286046997.7,N
1650050715.9,286046997.7,N
1650050735.8,286046999.5,N
1650050755.6,286046996.5,N
1650050775.4,286046995.2,N
1650050795.3,286046997.6,N
1650050815.1,286046997.9,N
1650050835.8,286046997.0,N
1650050855.7,286046998.6,N
1650050875.5,286047000.8,N
1650050895.4,286047000.0,N
1650050915.2,286047000.8,N
1650050935.0,286046998.7,N
1650050935.9,286046998.7,N
1650050955.8,286046997.9,N
1650050975.6,286046995.8,N
1650050995.5,286046993.3,Y
1650051015.3,286046996.9,P
1650051035.1,286046995.5,P
1650051055.9,286046995.3,P
1650051075.7,286046995.7,Y
1650051095.5,286046998.7,P
1650051115.4,286046997.1,N
1650051135.2,286046996.9,P
1650051155.1,286046996.6,Y
1650051156.0,286046996.6,P
1650051175.8,286047003.8,P
1650051195.6,286047007.1,N
1650051215.5,286047004.6,N
1650051235.3,286047006.3,N
1650051255.2,286047009.2,N
1650051275.9,286047009.1,N
1650051295.7,286047004.7,N
1650051315.6,286047003.5,N
1650051335.4,286047007.2,N
1650051355.2,286047006.1,N
1650051375.1,286047005.3,N
1650051376.0,286047005.3,N
1650051395.8,286047004.1,N
1650051415.7,286046999.9,N
1650051435.5,286046999.9,N
1650051455.3,286047002.6,N
1650051475.2,286047003.8,N
1650051495.0,286047006.9,N
1650051495.9,286047006.9,N
1650051515.7,286047009.7,N
1650051535.6,286047007.7,N
1650051555.4,286047006.1,N
1650051575.3,286047008.0,N
1650051595.1,286047005.1,N
1650051596.0,286047005.1,N
1650051615.8,286047003.4,N
1650051635.7,286047001.7,N
1650051655.5,286046999.8,N
1650051675.3,286047000.5,N
1650051695.2,286047000.5,N
1650051715.0,286046999.9,N
1650051715.9,286046999.9,N
1650051735.8,286047002.0,N
1650051755.6,286047002.6,N
1650051775.4,286047001.5,N
1650051795.3,286047002.1,N
1650051815.1,286047002.6,N
1650051835.8,286047005.0,N
1650051855.7,286047006.2,N
1650051875.5,286047007.0,N
1650051895.4,286047005.6,N
1650051915.2,286047003.9,N
1650051935.0,286047001.9,N
1650051935.9,286047001.9,N
1650051955.8,286047001.9,N
1650051975.6,286047004.4,N
1650051995.4,286047001.7,N
1650052015.3,286047004.2,N
1650052035.1,286047005.5,N
1650052055.9,286047004.8,N
1650052075.7,286047003.0,N
1650052095.5,286047003.8,N
1650052115.4,286047002.3,N
1650052135.2,286047000.1,N
1650052155.0,286047001.5,N
1650052155.9,286047001.5,N
1650052175.8,286047002.1,N
1650052195.6,286047002.7,N
1650052215.5,286046999.9,N
1650052235.3,286047002.0,N
1650052255.1,286047001.7,N
1650052275.9,286047004.2,N
1650052295.7,286047003.0,N
1650052315.6,286047003.4,N
1650052335.4,286047005.8,Y
1650052355.2,286047004.1,P
1650052375.1,286047004.2,P
1650052376.0,286047004.2,P
1650052395.8,286047000.9,N
1650052415.6,286046997.9,N
1650052435.5,286046996.2,N
1650052455.3,286046995.7,N
1650052475.2,286046999.1,N
1650052495.9,286046998.3,N
1650052515.7,286047000.7,N
1650052535.6,286046997.5,N
1650052555.4,286046995.5,N
1650052575.2,286046998.3,N
1650052595.1,286047001.9,N
1650052596.0,286047001.9,N
1650052615.8,286047000.5,N
1650052635.7,286046999.0,N
1650052655.5,286046997.6,N
1650052675.3,286046993.7,N
1650052695.2,286046995.5,N
1650052715.0,286046997.3,N
1650052715.9,286046997.3,N
1650052735.7,286046994.9,N
1650052755.6,286046997.1,N
1650052775.4,286046997.2,N
1650052795.3,286046997.3,N
